This is the latest recevied weather packets stored in our database for station/object KO4DYK. If no packets are shown the sender has not sent any weather packets the latest 10 day(s).
| Time | Temp. | Humidity | Pressure | Rain* | Wind** | Luminosity | Snow |
|---|---|---|---|---|---|---|---|
| 1788476799 | 35° C | 58% | 1014.9 hPa | 0 mm | - | 50 W/m² | - |
| 1788476498 | 35° C | 58% | 1014.7 hPa | 0 mm | - | 50 W/m² | - |
| 1788476195 | 35.56° C | 54% | 1014.7 hPa | 0 mm | - | 53 W/m² | - |
| 1788475891 | 35.56° C | 54% | 1014.6 hPa | 0 mm | - | 57 W/m² | - |
| 1788475587 | 35.56° C | 53% | 1014.6 hPa | 0 mm | - | 60 W/m² | - |
| 1788475284 | 36.11° C | 52% | 1014.5 hPa | 0 mm | - | 63 W/m² | - |
| 1788474989 | 36.11° C | 54% | 1014.6 hPa | 0 mm | - | 70 W/m² | - |
| 1788474681 | 36.67° C | 52% | 1014.8 hPa | 0 mm | - | 91 W/m² | - |
| 1788474377 | 36.67° C | 52% | 1014.7 hPa | 0 mm | - | 81 W/m² | - |
| 1788474076 | 37.22° C | 50% | 1014.8 hPa | 0 mm | - | 219 W/m² | - |
| 1788473771 | 37.78° C | 49% | 1014.7 hPa | 0 mm | - | 228 W/m² | - |
| 1788473470 | 38.33° C | 49% | 1014.7 hPa | 0 mm | - | 90 W/m² | - |
| 1788473169 | 38.89° C | 45% | 1014.6 hPa | 0 mm | - | 73 W/m² | - |
| 1788472869 | 39.44° C | 44% | 1014.6 hPa | 0 mm | - | 144 W/m² | - |
| 1788472567 | 40° C | 43% | 1014.7 hPa | 0 mm | - | 93 W/m² | - |
| 1788472263 | 39.44° C | 43% | 1014.7 hPa | 0 mm | - | 175 W/m² | - |
| 1788471961 | 40° C | 42% | 1014.5 hPa | 0 mm | - | 329 W/m² | - |
| 1788471657 | 40° C | 42% | 1014.6 hPa | 0 mm | - | 399 W/m² | - |
| 1788471352 | 39.44° C | 43% | 1014.6 hPa | 0 mm | - | 387 W/m² | - |
| 1788471047 | 40° C | 43% | 1014.7 hPa | 0 mm | - | 420 W/m² | - |
| 1788470743 | 40° C | 44% | 1014.8 hPa | 0 mm | - | 442 W/m² | - |
| 1788470439 | 39.44° C | 45% | 1014.8 hPa | 0 mm | - | 419 W/m² | - |
| 1788470133 | 38.33° C | 46% | 1014.8 hPa | 0 mm | - | 448 W/m² | - |
| 1788469831 | 38.89° C | 45% | 1015 hPa | 0 mm | - | 442 W/m² | - |
| 1788469530 | 40° C | 45% | 1015.1 hPa | 0 mm | - | 523 W/m² | - |
* Rain latest hour (hover to see other rain measurements)
** Current wind speed in m/s (hover to see current wind gust speed)